CAPE
0 0 0 0 0 0 0 0 148 307 418 761 650 621 433 333 203 315 1222 1906 1242 1288 1234 1258 1096 277 19 176 160 380 678 624 338 198 72 0 0 0 56 112 90 133 386 684 694 446 267 207 276
0 0 0 0 0 12 0 19 272 357 634 732 442 295 343 262 442 792 904 1566 1512 1481 1475 1337 1082 580 125 71 106 60 206 343 528 477 270 46 0 0 98 162 242 476 711 688 620 377 140 79 180
0 0 0 0 0 10 1 244 239 666 689 360 287 281 560 623 911 1081 834 1089 1916 1555 1472 1403 1139 993 323 91 63 44 20 59 157 155 150 79 72 150 193 308 554 674 722 651 481 285 140 62 46
0 0 0 0 0 0 0 190 517 633 652 593 354 556 507 1055 1174 1391 868 1480 2106 1941 1558 1327 1175 1167 1069 485 195 173 146 178 133 133 198 239 239 263 302 398 491 610 802 848 749 712 653 373 134
0 0 0 0 0 0 23 367 402 457 482 395 389 473 511 1214 1478 1196 2037 2032 2130 1970 1455 941 928 1193 1114 929 789 435 329 233 204 185 181 128 155 239 297 271 311 373 449 606 797 832 710 457 247
0 0 0 0 0 0 73 604 582 586 714 645 682 604 564 834 1859 1808 1608 1891 1727 1198 644 513 739 950 1125 1254 1146 960 834 697 605 513 426 360 304 346 417 426 480 645 747 794 833 844 729 630 550
0 0 0 0 0 25 101 796 730 616 651 496 796 807 618 616 824 1060 810 399 253 247 375 419 475 816 825 1339 1383 1378 1279 1245 1255 1192 1107 1040 967 756 550 412 331 317 459 546 572 545 500 476 426
0 0 0 0 0 94 428 369 431 452 180 137 472 647 807 420 194 231 226 162 111 41 91 798 1152 1124 968 675 444 271 183 106 76 182 289 345 433 1023 962 900 812 1108 964 710 587 522 471 439 357
0 0 0 0 0 42 328 358 252 23 322 304 196 618 556 266 197 204 196 120 11 0 0 0 0 0 27 211 81 108 34 25 20 56 45 198 375 691 978 944 668 536 532 684 743 793 840 780 713
0 0 0 0 0 2 275 84 309 283 348 454 549 598 498 338 510 469 247 17 0 0 0 0 0 0 0 0 0 0 0 0 0 5 15 91 209 374 97 290 300 245 391 530 558 524 473 616 636
0 0 0 0 0 0 5 3 96 67 91 273 405 360 413 423 481 43 0 0 0 0 0 0 0 0 0 0 0 0 0 0 0 0 0 0 0 6 12 30 79 214 373 397 656 805 919 821 865
0 0 0 0 0 0 0 0 0 0 0 0 64 136 291 62 0 0 0 0 0 0 0 0 0 0 0 0 0 0 0 0 0 0 0 0 0 0 0 0 0 0 23 96 161 205 280 454 620
0 0 0 0 0 0 0 0 0 0 0 0 30 123 0 0 0 0 0 0 0 0 0 0 0 0 0 0 0 0 0 0 0 0 0 0 0 0 0 0 0 0 0 0 0 0 23 146 260
0 0 0 0 0 0 0 0 0 0 0 0 12 0 0 0 0 0 0 0 0 0 0 0 0 0 0 0 0 0 0 0 0 0 0 0 0 0 0 0 0 0 0 0 0 0 0 0 42
0 0 0 0 0 0 0 0 0 0 0 0 0 0 0 0 0 0 0 0 0 0 0 0 0 0 0 0 0 0 0 0 0 0 0 0 0 0 0 0 0 0 0 0 0 0 0 0 0
0 0 0 0 0 0 0 0 0 0 0 0 0 0 0 0 0 0 0 0 0 0 0 0 0 0 0 0 0 0 0 0 0 0 0 0 0 0 0 0 0 0 0 0 0 0 0 0 0
0 0 0 0 0 0 0 0 0 0 0 0 0 0 0 0 0 0 0 0 0 0 0 0 0 0 0 0 0 0 0 0 0 0 0 0 0 0 0 0 0 0 0 0 0 0 0 0 0
0 0 0 0 0 0 0 0 0 0 0 0 0 0 0 0 0 0 0 0 0 0 0 0 0 0 42 0 0 0 0 0 0 0 0 0 0 0 0 0 0 0 0 0 0 0 0 0 0
0 0 0 0 0 0 0 0 0 0 0 0 0 0 0 0 0 0 0 0 0 0 5 66 51 115 153 9 0 0 0 0 0 0 0 0 0 0 0 0 0 0 0 0 0 0 0 0 0
0 0 0 0 0 0 0 0 0 0 0 0 0 0 5 10 19 14 10 1 4 38 71 145 264 243 197 29 0 3 6 0 0 0 0 0 0 0 0 0 0 0 0 0 0 0 0 0 0
0 0 0 0 0 0 0 0 0 0 0 0 2 1 13 28 44 65 45 19 48 89 133 162 131 60 45 45 2 17 9 0 0 1 0 0 0 0 0 0 0 0 1 0 2 3 5 6 1
0 0 0 0 0 0 0 0 0 0 0 0 0 1 8 34 54 61 55 17 63 133 19 3 15 27 2 0 0 0 0 0 0 0 0 0 0 0 0 0 0 2 6 7 5 8 4 7 8
0 0 0 0 0 0 0 0 0 0 0 0 0 0 0 0 56 64 76 3 0 0 7 14 9 0 0 0 0 0 0 0 0 0 0 0 0 0 0 0 4 4 4 4 3 3 1 0 0
0 0 0 0 0 0 0 0 0 0 0 0 0 0 0 0 0 44 2 0 0 0 0 0 0 0 0 0 0 0 0 0 0 0 0 0 0 0 1 3 0 0 5 4 8 6 7 3 1
0 0 0 0 0 0 0 0 0 0 0 0 0 2 0 3 12 0 0 0 0 0 0 0 0 0 0 0 0 0 0 0 0 0 0 0 0 0 1 1 5 4 4 6 6 6 4 9 8
0 0 0 0 0 0 0 0 0 0 0 5 6 10 3 0 0 0 0 0 0 0 0 0 0 0 0 0 0 0 0 0 0 0 1 3 1 1 3 6 5 2 3 3 2 6 2 3 0
0 0 0 0 0 0 0 0 0 0 0 20 0 0 0 0 0 0 0 0 0 0 0 0 0 0 0 0 0 0 0 0 0 2 1 2 5 4 6 3 2 3 2 3 3 2 2 3 4
0 0 0 0 0 0 1 0 0 0 0 0 0 0 0 0 0 0 0 0 0 0 0 0 0 0 0 0 0 0 0 1 3 5 2 1 5 3 2 4 4 3 3 2 4 3 2 1 1
0 0 0 0 0 1 0 0 0 0 0 0 0 8 7 0 0 0 0 0 0 0 0 0 0 0 0 0 0 0 1 3 4 0 2 4 8 5 3 4 5 1 2 3 2 3 2 2 1
0 0 0 0 0 0 0 0 0 0 0 0 0 75 25 0 0 0 0 0 0 0 0 0 0 0 0 0 0 1 3 4 1 4 4 8 2 2 4 3 2 2 3 2 2 2 2 3 2
CIN
0 0 0 0 0 0 0 0 -35 -40 -54 -90 -96 -72 -102 -104 -89 -18 -10 -3 -1 -2 -13 -36 -80 -204 -387 -257 -249 -181 -129 -134 -181 -210 -245 0 0 0 -259 -215 -210 -188 -145 -104 -86 -109 -135 -143 -136
0 0 0 0 0 -6 0 -50 -12 -34 -43 -82 -138 -149 -100 -129 -75 -29 -3 -1 -1 -1 -4 -16 -83 -149 -285 -315 -275 -317 -239 -186 -135 -145 -174 -253 0 0 -208 -175 -173 -124 -88 -89 -99 -117 -161 -182 -142
0 0 0 0 0 -6 -5 -9 -47 -53 -67 -85 -131 -158 -99 -72 -42 -19 -55 -26 -1 -1 -9 -58 -80 -104 -215 -300 -300 -307 -352 -314 -233 -220 -211 -235 -230 -192 -188 -159 -108 -92 -84 -85 -98 -126 -150 -185 -184
0 0 0 0 0 0 0 -38 -43 -49 -44 -45 -70 -110 -163 -72 -47 -22 -75 -4 -1 0 -9 -85 -98 -86 -95 -178 -256 -272 -287 -267 -294 -271 -230 -202 -206 -190 -171 -145 -131 -104 -69 -63 -77 -68 -70 -106 -151
0 0 0 0 0 0 -37 -37 -45 -12 -21 -36 -40 -82 -143 -72 -47 -50 -2 -2 -1 -1 -6 -99 -141 -94 -115 -141 -145 -222 -246 -281 -286 -293 -273 -267 -244 -201 -179 -184 -172 -154 -131 -97 -64 -56 -60 -87 -126
0 0 0 0 0 0 -64 -35 -18 -2 -12 -25 -26 -81 -151 -130 -20 -17 -7 -1 -4 -33 -85 -127 -178 -157 -139 -110 -120 -158 -170 -197 -204 -208 -221 -213 -215 -191 -160 -156 -150 -112 -83 -62 -47 -44 -54 -59 -66
0 0 0 0 0 -42 -61 -33 -4 -2 -6 -38 -34 -40 -145 -156 -147 -99 -118 -165 -150 -150 -136 -146 -150 -175 -175 -109 -105 -104 -110 -116 -107 -104 -100 -109 -113 -129 -152 -158 -171 -169 -136 -104 -80 -78 -84 -80 -79
0 0 0 0 0 -9 -52 -73 -55 -5 -75 -124 -72 -20 -76 -207 -260 -212 -201 -188 -183 -195 -162 -91 -58 -49 -59 -142 -251 -302 -320 -343 -359 -303 -255 -221 -164 -84 -80 -78 -70 -56 -55 -80 -88 -85 -85 -81 -90
0 0 0 0 0 -36 -56 -33 -99 -169 -63 -87 -100 -64 -122 -213 -182 -131 -126 -148 -154 0 0 0 0 0 -136 -116 -317 -313 -363 -353 -344 -280 -324 -195 -95 -55 -31 -28 -92 -113 -117 -88 -77 -63 -49 -51 -56
0 0 0 0 0 -4 -38 -26 -40 -40 -46 -59 -90 -135 -171 -158 -99 -61 -59 -42 0 0 0 0 0 0 0 0 0 0 0 0 0 -118 -117 -194 -149 -107 -205 -112 -145 -157 -123 -96 -82 -77 -79 -69 -31
0 0 0 0 0 0 -7 -8 -40 -10 -6 -18 -42 -104 -109 -106 -76 -47 0 0 0 0 0 0 0 0 0 0 0 0 0 0 0 0 0 0 0 -142 -184 -145 -95 -59 -28 -30 -4 -3 -3 -2 -1
0 0 0 0 0 0 0 0 0 0 0 0 -55 -77 -81 -69 0 0 0 0 0 0 0 0 0 0 0 0 0 0 0 0 0 0 0 0 0 0 0 0 0 0 -80 -74 -53 -36 -12 -6 -2
0 0 0 0 0 0 0 0 0 0 0 0 -65 -67 0 0 0 0 0 0 0 0 0 0 0 0 0 0 0 0 0 0 0 0 0 0 0 0 0 0 0 0 0 0 0 0 -48 -62 -37
0 0 0 0 0 0 0 0 0 0 0 0 -79 0 0 0 0 0 0 0 0 0 0 0 0 0 0 0 0 0 0 0 0 0 0 0 0 0 0 0 0 0 0 0 0 0 0 0 -65
0 0 0 0 0 0 0 0 0 0 0 0 0 0 0 0 0 0 0 0 0 0 0 0 0 0 0 0 0 0 0 0 0 0 0 0 0 0 0 0 0 0 0 0 0 0 0 0 0
0 0 0 0 0 0 0 0 0 0 0 0 0 0 0 0 0 0 0 0 0 0 0 0 0 0 0 0 0 0 0 0 0 0 0 0 0 0 0 0 0 0 0 0 0 0 0 0 0
0 0 0 0 0 0 0 0 0 0 0 0 0 0 0 0 0 0 0 0 0 0 0 0 0 0 0 0 0 0 0 0 0 0 0 0 0 0 0 0 0 0 0 0 0 0 0 0 0
0 0 0 0 0 0 0 0 0 0 0 0 0 0 0 0 0 0 0 0 0 0 0 0 0 0 -173 0 0 0 0 0 0 0 0 0 0 0 0 0 0 0 0 0 0 0 0 0 0
0 0 0 0 0 0 0 0 0 0 0 0 0 0 0 0 0 0 0 0 0 0 -111 -134 -137 -117 -123 -111 0 0 0 0 0 0 0 0 0 0 0 0 0 0 0 0 0 0 0 0 0
0 0 0 0 0 0 0 0 0 0 0 0 0 0 -118 -135 -156 -151 -178 -52 -43 -141 -105 -77 -74 -82 -101 -93 0 -14 -22 0 0 0 0 0 0 0 0 0 0 0 0 0 0 0 0 0 0
0 0 0 0 0 0 0 0 0 0 0 0 -139 -88 -122 -100 -113 -108 -138 -151 -106 -81 -70 -78 -118 -165 -167 -186 -62 -95 -38 0 0 -2 0 0 0 0 0 0 0 0 -1 0 -3 -1 -2 -2 -2
0 0 0 0 0 0 0 0 0 0 0 0 0 -65 -118 -115 -98 -71 -83 -114 -62 -74 -195 -249 -247 -240 -50 0 0 0 0 0 0 0 0 0 0 0 0 0 0 -2 -1 -2 -2 -1 -1 -2 -1
0 0 0 0 0 0 0 0 0 0 0 0 0 0 0 0 -104 -75 -47 -27 0 0 -248 -291 -305 0 0 0 0 0 0 0 0 0 0 0 0 0 0 -1 -2 -1 -1 -1 -3 -1 -2 0 0
0 0 0 0 0 0 0 0 0 0 0 0 0 0 0 0 0 -50 -8 0 0 0 0 0 0 0 0 0 0 0 0 0 0 0 0 0 0 0 -2 -2 -1 0 0 -1 0 0 -1 0 0
0 0 0 0 0 0 0 0 0 0 0 0 -6 -78 0 -51 -54 -12 0 0 0 0 0 0 0 0 0 0 0 0 0 0 0 0 0 -1 -1 -2 -1 0 -1 0 0 0 -1 0 0 0 0
0 0 0 0 0 0 0 0 0 0 0 -132 -122 -96 -99 0 0 0 0 0 0 0 0 0 0 0 0 0 0 0 0 0 0 0 -1 -1 -2 -1 -1 -1 0 0 0 0 0 0 0 -1 0
0 0 0 0 0 0 0 0 0 0 0 -85 0 0 0 0 0 0 0 0 0 0 0 0 0 0 0 0 0 0 0 0 -1 -1 -1 -1 0 -1 0 0 0 0 0 0 0 0 0 0 0
0 0 0 0 0 0 -3 0 0 0 0 0 0 0 0 0 0 0 0 0 0 0 0 0 0 0 0 0 0 0 -1 -1 -1 -1 -1 -1 0 0 0 0 0 0 0 0 0 0 0 0 0
0 0 0 0 -1 -2 0 0 0 0 0 0 0 -2 -5 0 0 0 0 0 0 0 0 0 0 0 0 0 0 -1 -1 -1 0 -1 -1 0 0 0 0 0 0 0 0 0 0 0 0 0 0
0 0 0 0 -1 0 0 0 0 0 0 0 0 -9 -32 0 0 0 0 0 0 0 0 0 0 0 0 0 -2 -1 -1 -1 0 -1 0 0 0 0 0 0 0 0 0 0 0 0 0 0 0
Wind_Speed
18 17 16 14 9 8 8 11 14 16 17 19 19 17 18 20 20 17 20 19 7 8 8 9 9 10 10 11 12 13 13 14 14 13 13 13 12 11 11 10 10 10 10 11 12 13 13 14 13
17 14 17 15 9 5 8 10 12 15 17 19 19 19 18 18 20 19 19 9 7 8 9 10 10 11 11 11 12 12 13 13 12 12 12 11 11 10 9 9 9 10 12 14 15 16 16 16 15
18 18 12 11 9 7 7 10 12 15 17 18 18 19 19 17 18 18 9 8 8 8 10 11 12 13 13 12 12 12 12 12 12 12 11 11 11 10 10 11 12 12 13 14 14 14 15 16 17
15 11 11 10 5 9 7 9 13 14 15 17 18 19 20 19 17 15 9 9 8 9 12 12 12 13 13 12 12 12 13 13 13 13 13 13 13 14 15 15 16 17 18 19 19 20 19 19 18
16 14 9 8 5 6 7 10 13 12 13 16 17 16 18 19 17 15 14 10 9 10 13 14 13 13 13 13 12 12 13 14 15 15 16 17 17 18 19 20 21 21 22 23 23 24 24 23 23
8 15 4 2 3 6 8 9 10 11 13 15 16 16 17 18 17 14 13 13 12 11 12 14 15 14 14 13 14 14 14 15 17 17 18 18 20 20 22 23 24 25 27 28 28 28 27 27 27
23 12 4 3 6 7 8 8 9 10 11 14 13 14 15 16 16 15 13 12 12 12 13 14 14 15 15 15 15 16 16 17 19 20 21 21 21 21 22 24 26 28 29 31 32 32 32 32 31
23 16 5 4 9 8 8 8 9 10 11 12 12 12 12 14 15 14 14 13 12 13 15 15 15 15 16 16 17 17 18 19 20 21 22 23 23 22 23 26 27 28 30 32 32 33 34 34 34
9 18 11 5 9 6 12 8 8 8 10 11 13 13 13 14 14 14 13 13 13 14 15 16 17 17 18 19 19 18 20 20 22 22 24 24 25 26 27 28 31 32 33 33 33 33 33 34 35
22 22 5 6 6 12 11 6 7 7 8 10 12 13 13 13 12 12 12 12 13 14 16 17 18 19 19 20 21 21 22 23 25 25 27 27 27 28 30 30 32 33 32 33 33 33 33 33 34
7 7 5 5 6 9 8 6 7 7 6 8 8 10 11 11 11 12 12 13 13 14 16 18 19 20 21 22 22 24 24 25 25 26 28 28 29 30 31 32 33 34 32 35 32 33 31 33 34
9 9 7 5 6 7 8 6 6 6 13 9 10 12 11 12 12 13 13 13 14 15 15 17 19 21 22 22 24 24 25 25 25 26 27 28 29 31 32 33 34 34 34 36 36 36 36 36 36
9 8 7 6 7 7 5 6 7 7 9 9 11 11 11 11 12 14 16 15 15 16 16 17 19 20 22 23 24 25 24 25 24 24 25 26 27 29 30 31 32 33 34 36 37 38 39 39 39
7 7 7 7 7 5 6 5 5 7 7 8 8 9 10 11 12 13 14 14 14 16 15 16 17 18 20 21 22 23 23 23 25 25 26 26 27 28 30 32 33 33 33 35 37 39 41 42 41
8 8 6 6 6 4 5 4 3 6 8 7 7 8 8 10 9 10 11 12 13 13 14 14 15 17 18 19 20 22 22 24 25 26 25 26 26 28 31 33 34 34 35 37 37 37 39 40 40
7 5 5 3 3 5 3 3 3 7 8 6 7 7 7 8 8 8 8 9 9 10 11 12 14 16 17 20 20 22 23 24 25 25 26 25 25 27 30 34 37 37 38 39 39 39 39 39 40
3 2 5 4 4 5 4 8 3 7 8 6 7 8 8 8 6 5 5 5 6 7 9 11 14 16 19 20 21 22 22 22 24 25 25 25 27 28 30 34 37 39 40 41 41 41 41 42 42
1 1 1 2 2 2 3 5 1 6 8 6 6 8 8 7 6 2 1 3 4 7 10 13 16 18 20 21 21 21 22 23 24 25 25 27 27 30 32 35 39 40 42 43 45 45 44 44 44
8 4 3 5 10 3 5 5 5 4 8 5 5 7 7 7 4 2 2 4 6 9 11 13 16 19 22 23 25 24 24 25 26 27 29 30 31 34 35 37 42 42 43 45 46 46 47 44 41
3 4 4 9 10 6 7 7 6 4 8 8 7 6 6 5 5 5 5 6 8 11 13 16 19 21 22 24 25 25 26 28 30 31 31 31 34 37 41 44 45 46 46 46 45 44 45 44 40
5 6 7 11 9 10 14 10 7 8 7 7 7 7 7 8 7 7 7 8 10 13 16 19 21 23 24 26 25 26 27 27 30 33 35 37 41 43 45 47 47 45 43 44 45 43 42 45 41
10 11 13 12 12 15 10 18 7 7 9 8 8 9 9 9 8 7 7 9 13 16 17 19 21 23 25 28 28 31 33 35 37 39 39 43 44 45 45 44 44 45 44 43 44 41 42 42 43
15 12 13 15 16 20 14 19 19 8 12 11 9 12 10 8 7 7 7 9 14 15 17 19 21 23 26 28 31 34 36 38 40 42 44 45 44 42 44 44 43 42 43 43 42 43 42 43 45
10 13 14 16 16 16 16 16 20 12 16 15 14 12 10 8 4 3 8 11 13 15 18 20 23 25 28 31 34 37 40 43 45 46 46 45 46 45 43 42 42 41 40 41 41 40 40 40 41
10 12 17 16 13 18 16 17 20 16 16 15 12 11 9 7 4 4 7 11 15 18 20 22 26 29 32 35 38 41 43 45 45 46 46 48 45 41 40 40 39 40 41 42 42 42 41 39 39
10 16 17 19 18 15 15 20 17 16 14 13 11 9 8 8 7 10 12 13 16 19 22 25 29 32 36 39 41 42 43 44 43 42 42 41 38 37 38 35 34 39 41 41 41 40 39 37 37
13 18 20 20 23 26 22 19 17 13 13 12 8 8 8 8 10 10 12 15 17 20 24 28 32 35 39 42 43 44 43 42 41 41 39 37 37 37 36 33 30 30 36 38 37 36 36 34 33
16 10 16 17 22 24 19 22 23 15 12 11 9 8 7 8 9 10 13 15 18 22 26 30 34 38 40 42 42 43 42 40 40 40 38 36 36 36 32 29 28 29 31 33 31 30 29 29 29
13 15 16 19 20 24 27 23 15 14 17 14 11 10 7 9 10 11 14 17 21 25 29 33 37 39 40 41 40 40 40 40 39 37 38 37 36 36 31 24 23 23 23 29 28 25 26 25 25
20 17 12 18 19 19 25 26 16 15 18 15 16 14 11 10 11 13 16 20 24 28 32 36 38 39 39 38 38 39 39 38 38 38 38 36 37 35 35 37 25 22 20 16 12 10 10 13 15
Wind_Direction
243 263 267 260 38 28 19 16 44 51 51 51 34 349 27 7 8 31 76 68 300 334 349 346 321 329 341 353 11 32 47 60 68 67 70 76 78 77 75 67 56 39 22 12 4 357 359 359 5
247 276 251 276 354 32 5 44 47 42 39 57 41 44 27 23 25 53 69 346 313 330 329 355 1 10 6 1 9 21 33 37 36 44 52 58 61 57 44 31 20 8 356 344 337 332 333 336 338
249 253 312 321 325 354 10 49 48 50 66 50 31 25 27 32 36 56 318 309 349 342 3 358 8 28 32 26 15 15 19 18 12 13 9 8 5 5 5 359 351 349 346 343 340 339 335 331 327
279 305 319 320 332 338 30 59 66 62 56 37 46 29 46 40 54 21 304 321 322 340 16 1 358 15 31 31 20 359 360 1 3 356 352 345 344 338 333 331 329 327 323 321 321 320 321 320 320
275 289 313 316 352 10 26 66 78 47 41 50 50 39 45 39 42 50 30 1 350 340 10 15 348 351 1 4 0 360 355 345 338 334 331 327 325 324 322 318 317 316 314 314 313 311 311 310 310
319 283 325 305 28 60 71 70 55 45 49 43 51 49 36 55 49 44 39 18 3 344 355 14 15 360 351 348 346 345 345 343 335 332 329 325 321 319 316 315 313 311 308 306 306 306 306 305 304
209 136 337 40 100 98 93 71 54 50 54 17 48 41 43 46 46 43 29 15 13 11 2 5 12 10 357 344 344 344 341 338 334 328 325 324 322 320 320 316 312 310 308 305 303 302 301 300 299
197 265 67 48 122 108 91 66 39 71 15 38 17 39 58 59 56 47 41 32 16 8 8 12 11 353 346 347 342 340 337 336 334 330 326 319 317 319 318 316 314 312 309 306 304 302 301 300 298
70 153 115 78 115 94 112 77 10 360 41 9 6 19 58 67 63 47 38 28 21 13 6 359 353 346 349 346 344 344 340 337 333 331 327 323 320 317 316 313 310 308 308 306 304 302 301 301 298
185 173 61 53 30 117 114 68 59 60 51 20 31 47 63 68 58 43 38 26 18 9 2 358 353 350 350 347 344 342 339 336 333 330 326 323 320 318 315 313 312 309 308 307 305 303 302 300 298
19 73 14 62 57 103 94 33 2 70 51 34 54 66 70 64 53 39 26 15 9 7 5 2 2 357 354 353 348 344 340 338 336 333 328 325 321 319 316 314 313 311 309 306 307 305 303 300 299
57 25 48 65 81 92 96 21 47 20 346 27 67 75 71 68 62 42 29 29 31 26 22 20 19 16 6 2 359 357 354 352 349 346 341 334 328 323 319 317 314 311 309 307 304 303 302 300 298
57 39 27 67 97 89 40 57 12 7 9 58 78 76 74 65 55 52 55 55 49 45 39 27 22 20 20 15 12 9 8 3 1 357 354 350 343 336 330 325 321 316 313 309 305 302 299 297 296
14 56 57 74 91 72 74 24 33 12 63 77 81 82 78 76 74 60 66 57 51 59 56 42 38 33 24 18 15 13 10 8 4 359 354 351 347 343 336 330 325 322 319 314 309 304 300 296 294
60 70 67 107 96 54 31 21 58 79 97 90 94 100 89 91 83 74 61 58 59 57 46 39 33 26 22 17 12 6 4 359 356 354 356 353 349 342 335 330 326 324 322 317 313 309 305 300 297
104 92 111 116 118 352 110 39 102 110 122 109 121 124 116 113 107 88 76 66 59 46 39 31 22 18 15 5 360 355 353 353 352 350 348 349 348 343 337 329 323 321 318 317 313 309 306 303 299
66 63 149 76 140 355 149 336 107 131 140 127 133 144 144 138 133 108 89 64 49 33 19 9 5 2 359 357 354 350 349 349 348 346 345 343 341 339 334 329 323 319 315 313 311 308 305 302 299
14 340 128 322 171 260 216 302 78 156 157 153 146 150 155 163 167 143 95 12 7 358 352 348 351 352 350 348 348 347 345 343 343 342 341 339 336 333 330 326 321 318 313 309 306 303 302 299 297
322 326 325 333 323 265 251 249 313 195 177 186 173 175 180 191 201 257 300 323 334 336 338 341 343 344 343 342 340 340 339 339 337 336 335 333 331 329 326 323 319 316 312 308 305 302 298 297 297
322 323 321 331 325 318 305 276 268 236 205 206 207 211 215 245 249 258 293 308 318 329 334 337 337 337 339 339 337 336 335 333 331 330 329 328 327 325 322 319 316 313 310 306 304 302 299 296 296
318 312 315 316 327 313 315 300 273 274 252 236 238 248 262 271 262 261 285 303 319 325 331 334 337 338 339 340 340 339 336 333 332 331 329 326 324 322 319 317 314 312 310 306 303 300 298 295 295
311 317 316 314 311 310 314 303 251 280 274 253 254 265 271 272 257 262 282 306 322 328 336 339 342 343 345 345 343 339 335 331 331 328 326 324 322 320 319 317 315 310 308 306 303 302 298 296 293
315 322 317 314 311 307 309 307 307 306 300 285 279 290 282 257 257 265 295 315 334 337 341 345 347 347 347 345 342 337 333 331 330 328 325 324 323 322 321 318 315 312 309 305 304 301 298 294 291
321 319 316 314 311 308 305 304 314 304 313 314 315 314 315 313 286 280 331 335 338 344 346 347 345 344 343 341 339 336 333 331 329 328 327 326 326 325 323 321 317 313 310 306 304 302 300 297 293
305 312 310 313 308 311 324 314 302 326 328 327 331 333 344 1 9 352 337 338 339 341 343 343 342 339 339 338 336 334 333 332 331 331 330 329 330 331 330 328 322 316 311 307 304 301 300 298 297
288 300 306 307 309 321 322 313 323 335 336 336 338 344 356 358 355 344 340 340 343 343 342 341 340 337 337 336 335 335 334 334 334 334 334 334 335 335 334 334 331 320 312 309 307 305 303 300 298
296 291 300 299 302 303 308 321 323 335 339 343 349 347 346 351 346 348 348 347 347 345 343 340 339 337 336 335 335 335 336 336 337 336 337 338 337 336 333 334 333 331 322 316 313 310 306 304 301
287 312 300 297 302 304 314 313 315 335 340 345 345 344 348 355 353 351 352 351 349 346 343 342 340 338 336 336 337 337 337 338 337 337 339 339 339 340 340 338 338 335 331 326 321 317 313 311 308
291 284 294 302 302 304 305 318 338 336 337 340 342 341 341 344 350 351 353 352 348 346 344 342 341 339 339 339 340 340 340 339 339 341 341 342 341 343 345 347 343 339 337 333 327 325 318 314 311
285 290 287 292 300 306 305 308 339 337 332 336 336 340 344 349 350 353 352 349 347 345 343 343 342 342 343 343 343 341 341 342 343 343 343 344 343 346 345 339 350 348 345 344 337 325 323 322 319